Location: Baia Mare
(47.6567°N, 23.5850°E)
Time: 14:36:03
(UTC+03:00)

ISS - Pass Details

Date: 15 July 2019
Orbit: 409 x 418 km, 51.6° (Epoch: 21 July)

Event Time Altitude Azimuth Distance (km) Brightness Sun altitude
Exits shadow 00:14:58 22° 81° (E) 947 -2.1 -18.6°
Drops below altitude 10° 00:16:22 10° 72° (ENE) 1,483 -1.0 -18.7°
Sets 00:18:30 0° 67° (ENE) 2,346 0.1 -18.8°
